When you browse on this site, cookies collect data to enhance your experience and personalize the content and advertising you see.
Visit our Privacy Policy to learn more. By continuing to use the site, you agree to this use of cookies and data.
  • In Lithuania
  • List of Countries
  • For 7 days
  • Water Temperature
  • Weather Map
  • Weather Widgets
  • user-avatar
    Login

    Hourly Weather Kalgoorlie

    Today, 25 January, Saturday

    Time Temperature Precipitation Wind Pressure Humidity
    00:00 +27°C° 0 mm 6 mps 730 mmHg 43%
    01:00 +26°C° 0 mm 7 mps 730 mmHg 48%
    02:00 +24°C° 0 mm 7 mps 729 mmHg 52%
    03:00 +23°C° 0 mm 6 mps 729 mmHg 54%
    04:00 +23°C° 0 mm 5 mps 730 mmHg 55%
    05:00 +22°C° 0 mm 4 mps 730 mmHg 57%
    06:00 +23°C° 0 mm 5 mps 730 mmHg 53%
    07:00 +25°C° 0 mm 5 mps 730 mmHg 49%
    08:00 +26°C° 0 mm 5 mps 731 mmHg 45%
    09:00 +28°C° 0 mm 4 mps 731 mmHg 40%
    10:00 +30°C° 0 mm 4 mps 731 mmHg 35%
    11:00 +33°C° 0 mm 3 mps 730 mmHg 29%
    12:00 +34°C° 0 mm 2 mps 730 mmHg 26%
    13:00 +35°C° 0 mm 2 mps 729 mmHg 22%
    14:00 +35°C° 0 mm 1 mps 729 mmHg 19%
    15:00 +35°C° 0 mm 1 mps 728 mmHg 18%
    16:00 +36°C° 0 mm 2 mps 728 mmHg 17%
    17:00 +37°C° 0 mm 2 mps 728 mmHg 16%
    18:00 +36°C° 0 mm 3 mps 728 mmHg 17%
    19:00 +35°C° 0 mm 4 mps 728 mmHg 19%
    20:00 +34°C° 0 mm 4 mps 728 mmHg 20%
    21:00 +33°C° 0 mm 4 mps 729 mmHg 21%
    22:00 +33°C° 0 mm 4 mps 729 mmHg 23%
    23:00 +32°C° 0 mm 4 mps 729 mmHg 24%

    Tomorrow, 26 January, Sunday

    Time Temperature Precipitation Wind Pressure Humidity
    00:00 +30°C° 0 mm 4 mps 728 mmHg 30%
    01:00 +29°C° 0 mm 4 mps 728 mmHg 36%
    02:00 +28°C° 0 mm 4 mps 728 mmHg 41%
    03:00 +27°C° 0 mm 4 mps 728 mmHg 42%
    04:00 +27°C° 0 mm 4 mps 728 mmHg 42%
    05:00 +26°C° 0 mm 3 mps 729 mmHg 42%
    06:00 +28°C° 0 mm 4 mps 729 mmHg 40%
    07:00 +29°C° 0 mm 4 mps 729 mmHg 37%
    08:00 +32°C° 0 mm 5 mps 730 mmHg 35%
    09:00 +33°C° 0 mm 5 mps 729 mmHg 30%
    10:00 +35°C° 0 mm 5 mps 729 mmHg 26%
    11:00 +37°C° 0 mm 4 mps 729 mmHg 21%
    12:00 +38°C° 0 mm 3 mps 729 mmHg 19%
    13:00 +39°C° 0 mm 2 mps 728 mmHg 16%
    14:00 +39°C° 0 mm 1 mps 728 mmHg 14%
    15:00 +40°C° 0 mm 1 mps 727 mmHg 14%
    16:00 +40°C° 0 mm 1 mps 727 mmHg 13%
    17:00 +40°C° 0 mm 1 mps 727 mmHg 13%
    18:00 +39°C° 0 mm 2 mps 727 mmHg 13%
    19:00 +38°C° 0 mm 3 mps 727 mmHg 14%
    20:00 +38°C° 0 mm 4 mps 727 mmHg 15%
    21:00 +37°C° 0 mm 4 mps 727 mmHg 17%
    22:00 +36°C° 0 mm 5 mps 728 mmHg 18%
    23:00 +35°C° 0 mm 5 mps 728 mmHg 20%

    Day after tomorrow, 27 January, Monday

    Time Temperature Precipitation Wind Pressure Humidity
    00:00 +34°C° 0 mm 5 mps 728 mmHg 24%
    01:00 +32°C° 0 mm 4 mps 727 mmHg 28%
    02:00 +30°C° 0 mm 4 mps 727 mmHg 33%
    03:00 +29°C° 0 mm 4 mps 727 mmHg 37%
    04:00 +28°C° 0 mm 4 mps 728 mmHg 41%
    05:00 +27°C° 0 mm 4 mps 728 mmHg 44%
    06:00 +29°C° 0 mm 4 mps 728 mmHg 37%
    07:00 +32°C° 0 mm 4 mps 729 mmHg 29%
    08:00 +34°C° 0 mm 4 mps 729 mmHg 21%
    09:00 +36°C° 0 mm 4 mps 729 mmHg 18%
    10:00 +39°C° 0 mm 5 mps 729 mmHg 16%
    11:00 +41°C° 0 mm 5 mps 729 mmHg 13%
    12:00 +42°C° 0 mm 4 mps 728 mmHg 12%
    13:00 +43°C° 0 mm 4 mps 728 mmHg 11%
    14:00 +44°C° 0 mm 3 mps 727 mmHg 10%
    15:00 +44°C° 0 mm 3 mps 727 mmHg 10%
    16:00 +44°C° 0 mm 3 mps 726 mmHg 10%
    17:00 +43°C° 0 mm 2 mps 726 mmHg 9%
    18:00 +43°C° 0 mm 3 mps 726 mmHg 10%
    19:00 +42°C° 0 mm 3 mps 727 mmHg 11%
    20:00 +41°C° 0 mm 4 mps 727 mmHg 11%
    21:00 +40°C° 0 mm 4 mps 727 mmHg 12%
    22:00 +39°C° 0 mm 5 mps 727 mmHg 13%
    23:00 +38°C° 0 mm 6 mps 727 mmHg 14%

    28 January, Tuesday

    Time Temperature Precipitation Wind Pressure Humidity
    00:00 +36°C° 0 mm 5 mps 726 mmHg 16%
    01:00 +35°C° 0 mm 4 mps 726 mmHg 18%
    02:00 +34°C° 0 mm 3 mps 726 mmHg 19%
    03:00 +32°C° 0 mm 2 mps 726 mmHg 21%
    04:00 +31°C° 0 mm 2 mps 726 mmHg 22%
    05:00 +30°C° 0 mm 1 mps 726 mmHg 24%
    06:00 +33°C° 0 mm 3 mps 727 mmHg 22%
    07:00 +35°C° 0 mm 5 mps 727 mmHg 19%
    08:00 +39°C° 0 mm 6 mps 728 mmHg 17%
    09:00 +40°C° 0 mm 7 mps 728 mmHg 15%
    10:00 +43°C° 0 mm 7 mps 728 mmHg 13%
    11:00 +45°C° 0 mm 7 mps 728 mmHg 12%
    12:00 +45°C° 0 mm 7 mps 727 mmHg 11%
    13:00 +46°C° 0 mm 6 mps 727 mmHg 10%
    14:00 +47°C° 0 mm 5 mps 726 mmHg 9%
    15:00 +47°C° 0 mm 5 mps 726 mmHg 9%
    16:00 +47°C° 0 mm 5 mps 725 mmHg 9%
    17:00 +47°C° 0 mm 5 mps 725 mmHg 8%
    18:00 +45°C° 0 mm 5 mps 725 mmHg 9%
    19:00 +43°C° 0 mm 5 mps 725 mmHg 10%
    20:00 +41°C° 0 mm 5 mps 725 mmHg 11%
    21:00 +40°C° 0 mm 6 mps 725 mmHg 11%
    22:00 +40°C° 0 mm 6 mps 725 mmHg 11%
    23:00 +39°C° 0 mm 6 mps 725 mmHg 12%

    29 January, Wednesday

    Time Temperature Precipitation Wind Pressure Humidity
    00:00 +38°C° 0 mm 7 mps 725 mmHg 12%
    01:00 +36°C° 0 mm 7 mps 724 mmHg 12%
    02:00 +36°C° 0 mm 7 mps 724 mmHg 13%
    03:00 +35°C° 0 mm 8 mps 724 mmHg 14%
    04:00 +34°C° 0 mm 8 mps 724 mmHg 16%
    05:00 +34°C° 0 mm 8 mps 724 mmHg 17%
    06:00 +35°C° 0 mm 9 mps 724 mmHg 15%
    07:00 +38°C° 0 mm 9 mps 725 mmHg 14%
    08:00 +39°C° 0 mm 10 mps 725 mmHg 12%
    09:00 +42°C° 0 mm 10 mps 725 mmHg 11%
    10:00 +44°C° 0 mm 9 mps 725 mmHg 10%
    11:00 +47°C° 0 mm 9 mps 724 mmHg 9%
    12:00 +46°C° 0 mm 8 mps 724 mmHg 8%
    13:00 +47°C° 0 mm 7 mps 723 mmHg 8%
    14:00 +47°C° 0 mm 6 mps 722 mmHg 8%
    15:00 +47°C° 0 mm 5 mps 722 mmHg 8%
    16:00 +47°C° 0 mm 5 mps 721 mmHg 8%
    17:00 +47°C° 0 mm 5 mps 720 mmHg 7%
    18:00 +45°C° 0 mm 5 mps 720 mmHg 8%
    19:00 +43°C° 0 mm 5 mps 720 mmHg 9%
    20:00 +41°C° 0 mm 6 mps 720 mmHg 10%
    21:00 +41°C° 0 mm 6 mps 720 mmHg 9%
    22:00 +40°C° 0 mm 6 mps 720 mmHg 9%
    23:00 +39°C° 0 mm 7 mps 720 mmHg 9%

    30 January, Thursday

    Time Temperature Precipitation Wind Pressure Humidity
    00:00 +36°C° 0 mm 6 mps 719 mmHg 13%
    01:00 +35°C° 0 mm 6 mps 719 mmHg 17%
    02:00 +33°C° 0 mm 5 mps 719 mmHg 22%
    03:00 +30°C° 0 mm 6 mps 719 mmHg 34%
    04:00 +28°C° 0 mm 6 mps 719 mmHg 45%
    05:00 +26°C° 0 mm 6 mps 719 mmHg 57%
    06:00 +26°C° 0 mm 6 mps 720 mmHg 56%
    07:00 +27°C° 0 mm 7 mps 720 mmHg 56%
    08:00 +27°C° 0 mm 7 mps 721 mmHg 55%
    09:00 +29°C° 0 mm 7 mps 721 mmHg 47%
    10:00 +32°C° 0 mm 7 mps 721 mmHg 40%
    11:00 +34°C° 0 mm 7 mps 721 mmHg 32%
    12:00 +35°C° 0 mm 7 mps 721 mmHg 28%
    13:00 +38°C° 0 mm 7 mps 721 mmHg 23%
    14:00 +40°C° 0 mm 7 mps 720 mmHg 18%
    15:00 +39°C° 0 mm 7 mps 721 mmHg 18%
    16:00 +39°C° 0 mm 7 mps 721 mmHg 18%
    17:00 +38°C° 0 mm 7 mps 721 mmHg 18%
    18:00 +34°C° 0 mm 9 mps 721 mmHg 26%
    19:00 +31°C° 0 mm 10 mps 722 mmHg 35%
    20:00 +27°C° 0 mm 12 mps 723 mmHg 43%
    21:00 +24°C° 0 mm 12 mps 723 mmHg 48%
    22:00 +21°C° 0 mm 12 mps 723 mmHg 54%
    23:00 +18°C° 0 mm 11 mps 724 mmHg 59%
    Show more